Massena, NY

4:31 PM EST on December 10, 2019 (GMT -0500)
Massena International-Richards

Weather History for KMSS - October, 2019

Change the Weather History Date:

Thursday, October 10, 2019

  Actual Average Record
Temperature  
Mean Temperature 48 °F 48 °F  
Max Temperature 63 °F 59 °F 82 °F (2018)
Min Temperature 33 °F 38 °F 20 °F (1989)
Degree Days  
Heating Degree Days 17 17  
Month to date heating degree days 153 150  
Since 1 July heating degree days 368 450  
Cooling Degree Days 0 0  
Month to date cooling degree days 0 0  
Year to date cooling degree days 398 361  
Moisture  
Dew Point 39 °F    
Average Humidity 73    
Maximum Humidity 96    
Minimum Humidity 50    
Precipitation  
Precipitation 0.00 in 0.11 in 0.61 in (1985)
Month to date precipitation 1.28 1.11  
Year to date precipitation 24.99 27.30  
Sea Level Pressure  
Sea Level Pressure 30.38 in    
Wind  
Wind Speed 7 mph (ENE)    
Max Wind Speed 17 mph    
Max Gust Speed 22 mph    
Visibility 8 miles    
Events      
T = Trace of Precipitation, MM = Missing Value Source: NWS Daily Summary

Daily Weather History Graph

Daily Weather History Graph

Search for Another Location

Airport or City:

Astronomy

Oct. 10, 2019 Rise Set
Actual Time 7:08 AM EDT 6:23 PM EDT
Civil Twilight 6:38 AM EDT 6:53 PM EDT
Nautical Twilight 6:04 AM EDT 7:27 PM EDT
Astronomical Twilight 5:30 AM EDT 8:01 PM EDT
Moon 5:34 PM EDT 3:37 AM EDT
Length of Visible Light 12h 14m
Length of Day
11h 15m
Waxing Gibbous, 91% of the Moon is Illuminated
Oct 10
Waxing Gibbous
Oct 13
Full
Oct 21
Last Quarter
Oct 27
New
Nov 4
First Quarter

Hourly Weather History & Observations

Time (EDT) Temp. Windchill Dew Point Humidity Pressure Visibility Wind Dir Wind Speed Gust Speed Precip Events Conditions
12:53 AM 37.9 °F - 35.1 °F 89% 30.40 in 10.0 mi Calm Calm - N/A   Clear
1:53 AM 37.0 °F - 34.0 °F 89% 30.39 in 10.0 mi Calm Calm - N/A   Clear
2:53 AM 36.0 °F - 33.1 °F 89% 30.38 in 10.0 mi Calm Calm - N/A   Clear
3:35 AM 35.1 °F - 34.0 °F 96% 30.37 in 2.5 mi Calm Calm - N/A   Partly Cloudy
3:45 AM 36.0 °F - 33.1 °F 89% 30.37 in 10.0 mi Calm Calm - N/A   Scattered Clouds
3:53 AM 36.0 °F - 33.1 °F 89% 30.39 in 10.0 mi Calm Calm - N/A   Partly Cloudy
4:15 AM 35.1 °F 32.2 °F 33.1 °F 92% 30.38 in 1.2 mi SSW 3.5 mph - N/A   Partly Cloudy
4:18 AM 34.0 °F 31.0 °F 33.1 °F 96% 30.38 in 0.8 mi SSW 3.5 mph - N/A   Mist
4:24 AM 34.0 °F - 33.1 °F 96% 30.38 in 1.2 mi Calm Calm - N/A   Scattered Clouds
4:26 AM 35.1 °F - 33.1 °F 92% 30.39 in 3.0 mi Calm Calm - N/A   Partly Cloudy
4:39 AM 36.0 °F - 33.1 °F 89% 30.39 in 1.8 mi Calm Calm - N/A   Partly Cloudy
4:50 AM 35.6 °F - 33.8 °F 93% 30.39 in 4.0 mi Calm Calm - N/A   Clear
4:51 AM 35.1 °F - 34.0 °F 96% 30.40 in 6.0 mi Calm Calm - N/A   Clear
5:53 AM 37.0 °F - 34.0 °F 89% 30.40 in 10.0 mi Calm Calm - N/A   Clear
6:53 AM 39.0 °F - 36.0 °F 89% 30.42 in 10.0 mi Calm Calm - N/A   Clear
7:53 AM 42.1 °F 40.2 °F 39.9 °F 92% 30.43 in 10.0 mi ENE 3.5 mph - N/A   Clear
9:53 AM 51.1 °F - 45.0 °F 80% 30.43 in 10.0 mi ENE 8.1 mph - N/A   Clear
10:53 AM 55.9 °F - 45.0 °F 67% 30.43 in 10.0 mi ENE 12.7 mph - N/A   Clear
11:53 AM 57.9 °F - 46.0 °F 65% 30.42 in 10.0 mi ENE 12.7 mph - N/A   Clear
12:53 PM 60.1 °F - 44.1 °F 55% 30.40 in 10.0 mi NE 13.8 mph - N/A   Clear
1:53 PM 62.1 °F - 45.0 °F 53% 30.38 in 10.0 mi ENE 11.5 mph - N/A   Clear
2:53 PM 63.0 °F - 45.0 °F 52% 30.37 in 10.0 mi NE 12.7 mph - N/A   Clear
3:53 PM 63.0 °F - 44.1 °F 50% 30.35 in 10.0 mi NE 12.7 mph - N/A   Clear
4:53 PM 62.1 °F - 45.0 °F 53% 30.35 in 10.0 mi NE 12.7 mph - N/A   Clear
5:53 PM 60.1 °F - 43.0 °F 53% 30.36 in 10.0 mi NE 10.4 mph - N/A   Clear
6:53 PM 53.1 °F - 43.0 °F 69% 30.35 in 10.0 mi NE 8.1 mph - N/A   Clear
7:53 PM 52.0 °F - 43.0 °F 71% 30.36 in 10.0 mi ENE 3.5 mph - N/A   Clear
8:53 PM 48.9 °F - 41.0 °F 74% 30.36 in 10.0 mi ENE 9.2 mph - N/A   Clear
9:53 PM 48.9 °F - 41.0 °F 74% 30.36 in 10.0 mi ENE 8.1 mph - N/A   Clear
10:53 PM 46.9 °F - 39.9 °F 77% 30.35 in 10.0 mi ENE 6.9 mph - N/A   Clear
11:53 PM 48.0 °F - 39.9 °F 74% 30.36 in 10.0 mi NE 5.8 mph - N/A   Clear